铱星星座 165星 (IRIDIUM 165)

导读 | 豆包AI

IRIDIUM 165是由美国发射的铱星系列卫星,于2018年7月25日08:00发射升空。铱星系统主要提供全球卫星通信服务,可为地面用户提供语音、数据等通信支持,覆盖偏远地区等传统网络无法抵达区域,IRIDIUM 165承担着补充完善全球通信网络覆盖的任务,保障全球连通性。

Basic Information
目录编号:
43572
目录名称:
IRIDIUM 165
国际标识:
2018-061D
轨道中心:
EARTH
卫星名称:
铱星星座 165星
卫星全名:
铱星星座 165星 (IRIDIUM 165)
卫星状态:
在轨 (已飞行2789 天)
发射日期:
2018-07-25 UTC
国别 :
美国 (US)
星等 :
--
Orbit Information
数据来源 国际轨道数据 AOE轨道数据
星历时间 2026-03-14T02:36:50+0800
14小时前
查看轨道信息
2026-03-12T09:00:00+0800
2天前
查看轨道信息
半长轴 7155.805km 7155.805km
偏心率 0.0002249 0.0002285
轨道倾角 86.391° 86.393°
近地点辐角 96.163° 95.697°
升交点赤经 96.712° 97.440°
平近点角 263.982° 317.573°
近地点 776.058km 776.032km
远地点 779.278km 779.304km
周期 100.403分钟 100.403分钟
每日圈数 14.342175 14.342177
Detailed Information
平衡模式:
三轴稳定
覆盖范围:
全球
运营商:
铱星通信公司
运营商所在国:
美国
制造商(研发单位):
阿莱尼亚宇航公司
制造商所在国:
意大利
使用方式:
暂无
Satellite Introduction
铱星(Iridium)是由共66个运作中的通信卫星组成的卫星通信系统。这个系统原本规划77个通信卫星,所以用原子序数为77的铱元素来命名。铱卫星允许人们使用手持型电子设备进行全球性的语音及数据通讯。该卫星仍在工作。
2D Orbit Map
3D Orbit Map
Orbit Altitude Analysis Chart
Orbit Inclination Analysis Chart
Orbit Comprehensive Analysis Chart
View Comprehensive Chart